◎2006 KE89の軌道と予報位置です    [From JSGA Web News No. 74]



JSGA Web News No. 74                                               2006 June 2



アポロ型特異小惑星2006 KE89の確認観測

  LONEOSサーベイから,2006年5月28日に発見された16等級の小惑星(85S001)の発見

が報告された.発見翌日,5月29/30日JSTになって美星スペースガードセンターでは,

この小惑星の確認作業を行ない,50-cm 反射望遠鏡で,この小惑星を捕らえ,次のよう

に観測した.この確認結果は,他所で行なわれた観測,決定された軌道とともに,2006

年5月30日JST発行のMPEC K70 (2006)で公表された.



     85S001  5C2006 05 29.69479 18 41 52.44 +60 13 14.6          16.7 V      300

     85S001  5C2006 05 29.69663 18 41 51.78 +60 13 30.7          16.5 V      300

     85S001  5C2006 05 29.70220 18 41 50.28 +60 14 17.9          16.6 V      300

     85S001  5C2006 05 29.70591 18 41 49.59 +60 14 49.3          16.6 V      300



  同センターでは,5月30日,31日夜も,50-cmと1.0-m反射を使用して,この小惑星を

次のように観測している.なお,我が国では, 雄踏の和久田俊一氏(379)も,両夜に

この小惑星の観測を報告している.



     K06K89E 1C2006 05 30.59823 18 38 45.56 +62 21 32.0          16.3 V      300

     K06K89E 1C2006 05 30.59960 18 38 45.21 +62 21 44.2          16.4 V      300

     K06K89E 1C2006 05 30.60240 18 38 44.48 +62 22 09.6          16.6 V      300

     K06K89E 1C2006 05 30.60377 18 38 44.22 +62 22 20.2          16.2 V      300

     K06K89E 5C2006 05 30.63575 18 38 36.02 +62 27 05.5          16.4 V      300

     K06K89E 5C2006 05 30.63947 18 38 35.11 +62 27 38.0          16.8 V      300

     K06K89E 5C2006 05 30.64686 18 38 33.37 +62 28 43.1          16.5 V      300

     K06K89E 5C2006 05 30.65428 18 38 31.38 +62 29 49.8          16.6 V      300

     K06K89E 5C2006 05 30.65797 18 38 30.38 +62 30 22.9          16.6 V      300

     K06K89E 1C2006 05 31.70170 18 33 48.94 +65 09 11.5          16.3 V      300

     K06K89E 1C2006 05 31.70251 18 33 48.62 +65 09 18.6          15.8 V      300

     K06K89E 1C2006 05 31.70330 18 33 48.40 +65 09 26.8          16.0 V      300

     K06K89E 1C2006 05 31.70487 18 33 47.89 +65 09 40.6          16.1 V      300

     K06K89E 1C2006 05 31.70566 18 33 47.59 +65 09 48.9          16.1 V      300

     K06K89E 1C2006 05 31.70646 18 33 47.33 +65 09 56.3          16.0 V      300

     K06K89E 1C2006 05 31.70726 18 33 47.06 +65 10 03.6          16.1 V      300

     K06K89E 1C2006 05 31.70805 18 33 46.84 +65 10 11.4          16.0 V      300

     K06K89E 1C2006 05 31.70885 18 33 46.52 +65 10 19.3          15.9 V      300



  次の軌道は,2006年5月28日から31日までに行なわれた75個の観測を使用して決定し

たもの.小惑星の軌道長半径は,ほぼ,地球のそれに近いものであった.

               。

       Mo= 306.2243                Epoch = 2006 May 25.0 TT

       ω = 299.3722                   e =   0.787909          H = 16.4

       Ω =  89.0102    (2000.0)       a =   1.021933 AU       G =  0.15

       i =  43.8691                   n゚=   0.9540479

       q =   0.216743 AU              P =   1.03 年



  上記の軌道からの位置予報は,次のとおり.小惑星は6月中旬に地球に 0.23 AUまで

接近したあと,位相角の関係で一旦,暗くなるが,7月下旬には,地球からの距離が遠

くなるものの位相角が小さくなり,再び明るくなる.しかし,小惑星は,太陽の向こう

側を動くために観測できない.



2006/        α  (2000) δ      △      r     日々運動   Elong.  Phase   V  

  0h TT     h  m       。  ,        AU      AU    ,  PA 。     。      。      等

June  1   18 32.22  +65 56.2    0.297   1.053 169.7/348    89.3   74.3   16.5

      2   18 25.73  +68 41.8    0.287   1.040 181.6/346    87.1   76.9   16.5

      3   18 16.73  +71 37.5    0.277   1.027 193.8/344    84.7   79.7   16.5

      4   18 03.46  +74 42.6    0.268   1.013 206.2/341    82.1   82.7   16.5

      5   17 42.20  +77 54.7    0.260   1.000 218.5/336    79.3   85.8   16.5

      6   17 03.65  +81 07.0    0.253   0.986 230.3/327    76.3   89.3   16.5

      7   15 41.85  +83 56.4    0.247   0.972 241.1/306    73.0   92.9   16.6

      8   12 56.24  +85 06.3    0.243   0.958 250.4/265    69.6   96.7   16.7

      9   10 22.20  +83 18.7    0.239   0.943 257.7/227    66.0  100.7   16.8

     10   09 09.49  +79 53.1    0.236   0.929 262.6/209    62.2  104.8   17.0

     11   08 34.36  +75 54.2    0.235   0.914 264.8/201    58.3  109.0   17.2

     12   08 14.43  +71 42.6    0.235   0.899 264.0/196    54.4  113.3   17.4

     13   08 01.68  +67 27.1    0.237   0.884 260.4/193    50.5  117.6   17.7

     14   07 52.78  +63 12.7    0.240   0.868 254.0/192    46.6  121.8   18.0

     15   07 46.18  +59 03.2    0.244   0.853 245.4/190    42.8  125.9   18.3

     16   07 41.04  +55 01.4    0.250   0.837 234.9/190    39.2  130.0   18.7

     17   07 36.87  +51 09.5    0.257   0.821 223.0/189    35.7  133.8   19.1

     18   07 33.40  +47 29.1    0.265   0.805 210.3/189    32.3  137.5   19.6

     19   07 30.42  +44 01.1    0.274   0.788 197.2/189    29.2  141.0   20.1

     20   07 27.81  +40 46.1    0.285   0.771 183.9/189    26.3  144.3   20.6

     21   07 25.48  +37 44.2    0.296   0.754 171.0/189    23.6  147.3   21.1

     22   07 23.37  +34 55.1    0.308   0.737 158.4/189    21.1  150.2   21.6

     23   07 21.42  +32 18.6    0.322   0.720 146.4/189    18.9  152.8   22.2

     24   07 19.61  +29 54.0    0.336   0.702 135.0/190    16.8  155.2   22.8

     25   07 17.91  +27 40.9    0.351   0.684 124.3/190    15.0  157.4   23.4

     26   07 16.30  +25 38.4    0.366   0.666 114.3/191    13.4  159.3   24.1

     27   07 14.76  +23 46.1    0.383   0.647 104.9/191    12.0  160.9   24.7

     28   07 13.28  +22 03.2    0.400   0.628  96.1/192    10.8  162.3   25.2

     29   07 11.86  +20 29.2    0.418   0.609  87.8/193     9.9  163.3   25.7

     30   07 10.49  +19 03.6    0.437   0.589  80.0/194     9.3  163.9   26.0

July  1   07 09.17  +17 45.8    0.457   0.570  72.7/195     8.9  164.0   26.1

      2   07 07.89  +16 35.5    0.477   0.550  65.7/196     8.7  163.7   26.0

      3   07 06.66  +15 32.2    0.499   0.529  59.0/197     8.7  163.0   25.7

      4   07 05.48  +14 35.7    0.521   0.509  52.5/198     9.0  161.9   25.2

      5   07 04.36  +13 45.8    0.544   0.488  46.2/199     9.3  160.3   24.6

      6   07 03.31  +13 02.2    0.568   0.467  40.0/201     9.7  158.4   24.0

      7   07 02.33  +12 24.8    0.593   0.445  33.8/203    10.2  156.1   23.3

      8   07 01.45  +11 53.6    0.620   0.424  27.4/204    10.7  153.4   22.6

      9   07 00.67  +11 28.6    0.647   0.402  20.9/207    11.3  150.4   22.0

     10   07 00.04  +11 09.9    0.676   0.380  14.1/210    11.8  147.0   21.3

     11   06 59.56  +10 57.7    0.707   0.359   6.8/215    12.2  143.1   20.7

     12   06 59.30  +10 52.2    0.739   0.337   1.5/354    12.6  138.7   20.1

     13   06 59.29  +10 53.7    0.773   0.316  10.0/ 27    13.0  133.6   19.4

     14   06 59.59  +11 02.7    0.808   0.295  19.8/ 31    13.3  127.9   18.8

     15   07 00.29  +11 19.5    0.845   0.276  30.7/ 35    13.4  121.3   18.2

     16   07 01.47  +11 44.8    0.884   0.258  42.8/ 37    13.4  113.8   17.6

     17   07 03.25  +12 18.7    0.925   0.243  55.9/ 40    13.3  105.3   17.1

     18   07 05.72  +13 01.4    0.967   0.230  69.7/ 43    13.0   95.9   16.6

     19   07 08.98  +13 52.3    1.009   0.221  83.1/ 46    12.5   85.6   16.1

     20   07 13.09  +14 50.1    1.051   0.217  95.2/ 48    11.9   74.8   15.8

     21   07 18.03  +15 53.0    1.092   0.218 104.8/ 51    11.1   64.1   15.6

     22   07 23.72  +16 58.4    1.131   0.223 111.4/ 54    10.2   54.0   15.4

     23   07 30.01  +18 04.0    1.167   0.233 115.1/ 56     9.3   44.9   15.3

     24   07 36.76  +19 07.7    1.201   0.246 116.5/ 58     8.4   37.3   15.3

     25   07 43.81  +20 08.3    1.232   0.263 116.2/ 61     7.7   31.1   15.3

     26   07 51.04  +21 04.8    1.260   0.281 114.7/ 63     7.0   26.3   15.3

     27   07 58.36  +21 56.9    1.286   0.301 112.5/ 65     6.6   22.9   15.4

     28   08 05.71  +22 44.7    1.310   0.321 110.0/ 66     6.4   20.7   15.5

     29   08 13.03  +23 28.1    1.332   0.343 107.2/ 68     6.4   19.4   15.7

     30   08 20.29  +24 07.5    1.353   0.364 104.4/ 70     6.6   18.8   15.8

     31   08 27.48  +24 43.0    1.373   0.386 101.7/ 71     7.0   18.6   16.0

Aug.  1   08 34.58  +25 15.0    1.392   0.408  99.0/ 73     7.4   18.8   16.1





軌道と残差:

 

2006 KE89

Epoch 2006 May  25.0 TT = JDT 2453880.5                 Nakano

M 306.22431              (2000.0)            P               Q

n   0.95404786     Peri.  299.37216     +0.63663107     -0.33849254

a   1.0219334      Node    89.01017     +0.68021099     +0.66981871

e   0.7879092      Incl.   43.86909     -0.36333717     +0.66088251

P   1.03           H   16.4           G   0.15           U   *

Residuals in seconds of arc 

060528 699  0.2-  0.4-    060529 J69  0.1-  0.5-    060530 379  0.0   1.1-  

060528 699  0.3+  0.5-    060529 J69  0.1+  0.2-    060530 379  0.0   1.4-  

060528 699  0.1-  0.5-    060529 J69  0.5+  0.8-    060530 A55  0.4+  1.6-  

060528 699  0.3+  0.6-    060529 J69  0.3+  0.5-    060531 A55  0.4+  1.4-  

060529 097  0.0   0.8+    060529 J95  0.0   0.3+    060531 A55  0.4+  1.2-  

060529 097  0.7+  0.1+    060529 J95  0.1-  0.5+    060531 A55  0.5+  1.3-  

060529 097  0.2+  0.4+    060529 J95  0.0   0.4+    060531 A55  0.7+  1.1-  

060529 097  0.3+  0.1-    060529 A50  0.4+  0.1+    060531 300  0.1+  0.6+  

060529 097  0.3-  1.1+    060529 A50  0.4+  0.1+    060531 300  0.2-  0.0   

060529 H36  0.0   0.2-    060529 A50  0.6+  0.4+    060531 300  0.0   0.7+  

060529 H36  0.0   0.1-    060529 A50  0.3+  0.2+    060531 300  0.1+  0.3-  

060529 H36  0.0   0.2+    060530 J95  0.4+  0.1+    060531 300  0.1-  0.5+  

060529 H36  0.2+  0.2+    060530 J95  0.3+  0.2+    060531 300  0.1-  0.4+  

060529 734  0.0   0.2+    060530 J95  0.4+  0.2+    060531 300  0.1-  0.1+  

060529 734  0.2+  0.0     060530 300  0.2-  0.6+    060531 300  0.2+  0.4+  

060529 734  0.1+  0.2+    060530 300  0.3-  0.6+    060531 300  0.2-  0.8+  

060529 734  0.1+  0.6-    060530 300  0.5-  1.2+    060531 379  0.5+  0.3+  

060529 682 (0.1+  3.2+)   060530 300  0.0   0.4-    060531 379  0.5+  0.3+  

060529 682 (0.4-  2.8+)   060530 300  1.5-  1.2+    060531 379  0.5+  0.1-  

060529 682 (1.3-  2.5+)   060530 300  1.3-  0.8+    060531 379  0.4+  0.1+  

060529 300 (3.0+  0.9-)   060530 300  0.4-  0.3+    060531 379  0.2-  0.4-  

060529 300  0.9+  0.0     060530 300  1.1-  1.2+    060531 379  0.2+  0.0   

060529 300  1.7-  1.0+    060530 300  1.6-  1.6+    060531 379  0.1+  0.2-  

060529 300  1.2-  1.6+    060530 379  0.2-  0.8-    060531 379  0.2-  0.1+  

060529 J69  0.0   0.3+    060530 379  0.1-  1.0-    060531 379  0.3+  0.1+  

060529 J69  0.2+  0.7-    060530 379  0.1-  1.1-                            

060529 J69  0.4-  0.6-    060530 379  0.2-  0.9-                            

 

日本スペースガード協会            (c) Copyright JSGA 2006           中野 主一

         **** Don't distribute anyone except personal use only ****

                (C) Copyright 2006 OAA/ComputingSection

write mail from CFAD0::NAKANO on 2006-06-02 05:49:17(JST).

 



戻ります。